Starlink 11508

operational
NORAD ID: 62515 Int'l Des: 2025-004 Owner: SPXS Country: US Constellation: starlink
LEOCIRCULAR

About Starlink 11508

Description loading...

Live Position

Loading 3D Globe...

Upcoming Passes

Altitude History

Altitude vs Time

uPlot chart will show altitude changes over time

Two-Line Element Set

1 62515U 25004E 25261.78079580 .00213500 00000-0 16207-2 0 9999
2 62515 42.9994 26.7682 0001631 272.7901 87.2780 15.70902020 40178
Epoch: Sep 18, 2025 • Age: 13 hours

Current Status

Altitude 357.1 km
Velocity 7.70 km/s
Sub-Earth Point 30.23°N, 54.07°E
Launch Date Jan 8, 2025
Age 0.6 years
Type internet

Technical Details

Classification Payload
Mass 960.00 kg
Dry Mass 910.00 kg
Total Mass 960.00 kg
Length 0.30 m
Diameter 4.10 m
Span 29.00 m
Shape Box + pan
Manufacturer SPXS
Bus Type Starlink V2MD
Phase Status In Orbit
Owner/State SPXS/US

Large Constellations

Loading constellations...